Hourly Data Report for October 13, 2015

All times are specified in Local Standard Time (LST). Add 1 hour to adjust for Daylight Saving Time where and when it is observed.

RESOLUTE BAY A
NUNAVUT

74°43'01.000" N
94°58'10.000" W
67.70 m
2403498
71924
YRB

Download Data

Hourly Data (October 2015)
Hourly Data Report for October 13, 2015
Temp Definition
°C
Dew Point Temp Definition
°C
Rel Hum Definition
%
Wind Dir Definition
10's deg

Wind Spd Definition
km/h
Visibility Definition
km
Stn Press Definition
kPa
Hmdx Definition


Wind Chill Definition


Weather Definition


TIME
00:00 Legend Double Dagger -14.1 -16.4 83 2 32 9.7 99.37   -25 Snow,Blowing Snow
01:00 Legend Double Dagger -14.9 -17.2 83 2 37 9.7 99.36   -27 Snow,Blowing Snow
02:00 Legend Double Dagger -15.6 -17.9 83 3 41 11.3 99.33   -28 Blowing Snow
03:00 Legend Double Dagger -15.6 -17.7 84 2 41 11.3 99.33   -28 Blowing Snow
04:00 Legend Double Dagger -15.6 -17.7 84 33 23 11.3 99.34   -26 Blowing Snow
05:00 Legend Double Dagger -15.5 -17.6 84 35 35 11.3 99.36   -27 Blowing Snow
06:00 Legend Double Dagger -15.4 -17.4 85 36 27 11.3 99.37   -26 Mostly Cloudy
07:00 Legend Double Dagger -15.6 -17.7 84 35 30 6.4 99.38   -27 Snow Grains,Blowing Snow
08:00 Legend Double Dagger -16.0 -18.1 84 36 42 12.9 99.36   -29 LegendNANA
09:00 Legend Double Dagger -16.1 -18.5 82 36 40 12.9 99.40   -29 Mostly Cloudy
10:00 Legend Double Dagger -16.0 -18.6 81 36 37 16.1 99.43   -28 LegendNANA
11:00 Legend Double Dagger -17.3 -19.8 81 34 18 16.1 99.43   -27 LegendNANA
12:00 Legend Double Dagger -17.4 -19.9 81 34 21 12.9 99.44   -27 Mainly Clear
13:00 Legend Double Dagger -17.6 -20.1 81 36 27 12.9 99.48   -29 LegendNANA
14:00 Legend Double Dagger -18.1 -20.5 82 35 23 12.9 99.50   -29 LegendNANA
15:00 Legend Double Dagger -18.9 -21.1 83 34 27 12.9 99.54   -31 Mostly Cloudy
16:00 Legend Double Dagger -18.7 -20.8 84 36 34 12.9 99.58   -32 LegendNANA
17:00 Legend Double Dagger -20.6 -22.9 82 35 27 12.9 99.64   -33 LegendNANA
18:00 Legend Double Dagger -20.5 -22.8 82 35 28 12.9 99.66   -33 Mainly Clear
19:00 Legend Double Dagger -20.6 -22.8 83 36 30 12.9 99.70   -33 LegendNANA
20:00 Legend Double Dagger -19.8 -22.0 83 36 32 16.1 99.70   -33 LegendNANA
21:00 Legend Double Dagger -20.0 -22.2 83 36 35 16.1 99.71   -33 Mainly Clear
22:00 Legend Double Dagger -20.3 -22.5 83 36 29 16.1 99.72   -33 LegendNANA
23:00 Legend Double Dagger -20.3 -22.5 83 1 33 16.1 99.75   -33 LegendNANA

Notes on Data Quality.

Legend

  • E = Estimated
  • M = Missing
  • NA = Not Available
  • ‡ = Partner data that is not subject to review by the National Climate Archives
Date modified: